Location: Forst
(46.9333°N, 15.4333°E)
Time: 16:31:17
(UTC+00:00)

Okean O Rocket - Pass Details

Date: 01 December 2020
Orbit: 622 x 645 km, 98.2° (Epoch: 28 January)

Event Time Altitude Azimuth Distance (km) Brightness Sun altitude
Rises 16:19:05 0° 163° (SSE) 2,898 5.1 -11.2°
Reaches altitude 10° 16:21:16 10° 163° (SSE) 1,998 4.2 -11.6°
Maximum altitude 16:25:37 86° 75° (ENE) 638 1.5 -12.3°
Drops below altitude 10° 16:30:02 10° 347° (NNW) 2,028 4.1 -13.0°
Sets 16:32:15 0° 347° (NNW) 2,945 5.0 -13.3°
